Flag for U.S.A. Weather past 2 weeks in Davenport, Iowa, U.S.A.

Now
70 °F

Thundershowers. Partly cloudy.


Feels Like: 71 °F
Forecast: 65 / 77 °F
Wind: 26 mph from Northwest

Location: Davenport Municipal Airport

Current Time: Sep 1, 2014 at 2:47:39 AM

Latest Report: Sep 1, 2014 at 2:02 AM


Visibility: 10 mi

Pressure: 29.84 "Hg

Humidity: 79%

Dew point: 63 °F

Location of DavenportLocation

Historic Weather in Davenport — Graph

°F

Davenport temperature yesterday

Maximum temperature yesterday: 85 °F (at 2:52 PM)
Minimum temperature yesterday: 60 °F (at 3:52 AM)
Average temperature yesterday: 73 °F

Past Weeks' High & Low Weather Summary

 TemperatureHumidityPressure
High91 °F (Aug 24, 1:52 PM)100% (Aug 31, 1:59 AM)30.17 "Hg (Aug 31, 1:59 AM)
Low60 °F (Aug 20, 3:52 AM)51% (Aug 19, 2:52 PM)29.70 "Hg (Aug 19, 4:52 AM)
Average74 °F82%29.92 "Hg
* Reported Aug 17 1:52 AM — Sep 1 1:52 AM, Davenport, Weather by CustomWeather, © 2014

Note: Actual official high and low records may vary slightly from our data, if they occured in-between our weather recording intervals... More about our weather records

Advertising

Davenport weather history for previous 24 hours

 ConditionsComfort  
Time TempWeatherWind HumidityBarometerVisibility
1:52 AM
Sep 1
75 °FThundershowers. Passing clouds.12 mph82%29.77 "Hg10 mi
12:52 AM76 °FClear.16 mph80%29.78 "Hg10 mi
11:52 PM
Aug 31
77 °FClear.17 mph74%29.79 "Hg10 mi
10:52 PM77 °FClear.14 mph71%29.80 "Hg10 mi
9:52 PM78 °FClear.15 mph69%29.79 "Hg10 mi
8:52 PM78 °FClear.12 mph71%29.79 "Hg10 mi
7:52 PM78 °FSunny.10 mph71%29.78 "Hg10 mi
6:52 PM81 °FSunny.15 mph65%29.81 "Hg10 mi
5:52 PM84 °FSunny.13 mph57%29.84 "Hg10 mi
4:52 PM85 °FSunny.12 mph55%29.85 "Hg10 mi
3:52 PM85 °FSunny.12 mph55%29.85 "Hg10 mi
2:52 PM85 °FSunny.9 mph59%29.86 "Hg10 mi
1:52 PM84 °FSunny.12 mph59%29.88 "Hg10 mi
12:52 PM83 °FSunny.12 mph63%29.90 "Hg10 mi
11:52 AM81 °FSunny.7 mph65%29.92 "Hg10 mi
10:52 AM80 °FSunny.9 mph67%29.93 "Hg10 mi
9:52 AM77 °FSunny.8 mph74%29.93 "Hg10 mi
8:52 AM74 °FSunny.6 mph85%29.92 "Hg10 mi
7:52 AM69 °FFog.5 mph93%29.92 "Hg4 mi
6:52 AM61 °FFog.5 mph97%29.92 "Hg0 mi
6:01 AM61 °FFog.5 mph97%29.93 "Hg0 mi
5:04 AM60 °FFog.5 mph96%29.92 "Hg1 mi
4:52 AM60 °FFog.3 mph96%29.91 "Hg4 mi
3:52 AM60 °FFog.No wind96%29.91 "Hg0 mi
3:03 AM62 °FFog.No wind96%29.92 "Hg0 mi
2:52 AM64 °FFog.No wind94%29.90 "Hg1 mi
Weather by CustomWeather, © 2014

See weather overviewHow to use our weather pages